Simultaneous Nadir Overpasses (SNOs) Predictions

Prediction of SNOs between GOES-16 and TERRA Satellite Orbit:

Table of predicted SNOs for the next 14.0 days since TLE Epoch: 11/4/2022
Index Date Time (GOES-16) GOES-16 Lat,Lon TERRA Lat,Lon Distance(km) Time Diff (sec)
1 11/05/2022 03:22:10 0.06, -75.18 -0.25, -76.73 176.11 80
2 11/07/2022 03:03:50 0.06, -75.19 0.51, -72.94 255.62 80
3 11/07/2022 15:26:52 -0.05, -75.21 0.49, -77.89 304.40 80
4 11/09/2022 15:08:32 -0.05, -75.23 -0.30, -74.10 128.07 80
5 11/10/2022 03:31:43 0.05, -75.22 -0.74, -79.09 439.08 80
6 11/12/2022 03:16:02 0.04, -75.24 0.01, -75.29 6.26 80
7 11/14/2022 02:57:42 0.04, -75.27 0.85, -71.51 427.83 80
8 11/14/2022 15:18:03 -0.03, -75.29 0.21, -76.45 131.84 80
9 11/16/2022 15:05:02 -0.03, -75.32 -0.58, -72.65 302.91 80
10 11/17/2022 03:25:31 0.02, -75.32 -0.48, -77.63 263.40 80
